www.pogodaiklimat.ru

Погода и климат >> Архив погоды >> Таиланд >> Бангкок Пилот


ПОГОДА в Бангкок Пилот

  • Прогноз погоды в Бангкок Пилот
  • Монитор погоды в Бангкок Пилот

АРХИВ ПОГОДЫ в Бангкок Пилот

Время (UTC), дата Ветер
(напр.,м/с)
 
Видим.   Явления Облачность Т
(С)
Тd
(С)
f
(%)
Тe
(С)
Тes
(С)
Комфортность P
(гПа)
Po
(гПа)
Тmin
(С)
Tmax
(С)
R
(мм)
R24
(мм)
S
(см)
00 19.08 З 9 10 км 8/1 600 м
[Cu med, cong Ac lent Cs]
+28.8 +25.5 82 +42 +42 опасность
перегрева
1009.1 1007.5 +28.5
03 19.08 ЮЗ 6 10 км 5/3 600 м
[Cu med, cong Ac trans Cs]
+29.5 +24.3 74 +41 +45 опасность
перегрева
1009.9 1008.3
06 19.08 ЮЗ 8 10 км 4/1 600 м
[Cu hum Ac und Cs]
+30.7 +24.9 71 +44 +47 опасность
перегрева
1008.3 1006.7
09 19.08 Ю 10 12 км 8/4 600 м
[Cu med, cong Ac lent Cs]
+30.5 +25.9 76 +45 +45 опасность
перегрева
1006.4 1004.7
12 19.08 ЮЗ 14 12 км 8/3 600 м
[Cu med, cong Ac As Cs]
+30.0 +26.5 82 +46 +46 опасность
перегрева
1007.0 1005.4 +31.1
00 20.08 ЮЗ 3 10 км 10/3 600 м
[Cu med, cong Ac As Cs]
+29.3 +25.8 81 +43 +44 опасность
перегрева
1007.4 1005.7 +29.0
03 20.08 ЮЗ 9 10 км 10/3 600 м
[Cu Sc Ac As Cs]
+29.5 +26.7 85 +46 +46 опасность
перегрева
1008.1 1006.5
06 20.08 ЮЗ 10 10 км 10/4 600 м
[Cu Sc Ac As Cs]
+29.7 +26.3 82 +45 +46 опасность
перегрева
1006.8 1005.1
09 20.08 ЮЗ 25 3000 м слаб. дождь 10/8 600 м
[Cu Sc Ac As]
+25.5 +25.1 98 +37 +37 очень
душно
1005.6 1004.0 2
12 20.08 Ю 6 10 км {дождь} 10/0
[Ac As Cs]
+27.4 +25.8 91 +41 +41 опасность
перегрева
1005.8 1004.2 +30.0 7
00 21.08 ЮЗ 12 10 км 10/1 600 м
[Cu hum Ac As Cs]
+29.0 +25.9 83 +43 +43 опасность
перегрева
1006.0 1004.3 +27.2
03 21.08 ЮЗ 7 12 км 10/3 600 м
[Cu hum Ac As Cs]
+29.5 +25.2 78 +43 +44 опасность
перегрева
1007.9 1006.2
06 21.08 ЮЗ 10 12 км 8/3 600 м
[Cu med, cong Ac lent Cs]
+29.5 +25.7 80 +44 +44 опасность
перегрева
1006.9 1005.3
09 21.08 Ю 11 12 км 8/4 600 м
[Cu med, cong Ac lent Cs]
+30.0 +26.8 83 +47 +47 опасность
перегрева
1005.1 1003.5
12 21.08 Ю 14 12 км 10/4 600 м
[Cu Sc Ac As Cs]
+28.7 +26.6 88 +44 +44 опасность
перегрева
1005.9 1004.2 +30.3
00 22.08 ЮЗ 12 10 км 10/4 600 м
[Sc Ac As Cs]
+29.0 +26.2 85 +44 +44 опасность
перегрева
1008.1 1006.4 +28.5
03 22.08 ЮЗ 14 10 км 10/4 600 м
[Cu Sc Ac As Cs]
+29.5 +26.7 85 +46 +46 опасность
перегрева
1009.5 1007.8
06 22.08 Ю 13 10 км 8/3 600 м
[Cu med, cong Ac lent Cs]
+30.1 +27.2 85 +48 +48 опасность
перегрева
1007.7 1006.0
09 22.08 ЮЗ 13 10 км 8/3 600 м
[Cu med, cong Ac lent Cs]
+29.5 +27.4 89 +48 +48 опасность
перегрева
1005.8 1004.1
12 22.08 Ю 12 10 км 9/3 600 м
[Cu med, cong Ac As Cs]
+29.3 +28.5 95 +50 +50 опасность
перегрева
1006.7 1005.1 +30.4
00 23.08 ЮЗ 12 10 км 10/0
[Ac As Cs]
+29.5 +26.7 85 +46 +46 опасность
перегрева
1008.6 1006.9 +28.1
03 23.08 Ю 13 10 км 8/3 600 м
[Cu med, cong Ac und Cs]
+29.9 +26.5 82 +46 +46 опасность
перегрева
1009.9 1008.3
06 23.08 ЮЗ 9 10 км 8/3 300 м
[Cb cap Ac lent Cs]
+29.8 +26.0 80 +45 +46 опасность
перегрева
1007.9 1006.2
09 23.08 Ю 12 10 км 10/3 600 м
[Sc Ac As Cs]
+29.7 +26.6 83 +46 +46 опасность
перегрева
1006.6 1004.9
12 23.08 Ю 12 10 км 10/4 600 м
[Sc Ac As Cs]
+29.5 +28.0 92 +49 +49 опасность
перегрева
1007.6 1005.9 +30.5
00 24.08 ЮЗ 12 10 км 10/3 600 м
[Sc Ac As]
+29.0 +26.2 85 +44 +44 опасность
перегрева
1007.9 1006.3 +28.6
03 24.08 ЮЗ 10 10 км 9/3 600 м
[Cu Sc Ac lent Cs]
+29.3 +26.5 85 +45 +45 опасность
перегрева
1008.9 1007.3
06 24.08 ЮЗ 5 12 км 8/4 600 м
[Cu med, cong Ac lent Cs]
+29.5 +26.1 82 +45 +49 опасность
перегрева
1007.5 1005.9
09 24.08 ЮЗ 11 12 км осадки на расстоянии 9/4 600 м
[Cu med, cong Ac As Cs]
+29.5 +26.7 85 +46 +46 опасность
перегрева
1005.8 1004.1
12 24.08 ЮЗ 11 12 км 10/4 600 м
[Cu Sc Ac As Cs]
+29.3 +26.8 86 +46 +46 опасность
перегрева
1006.4 1004.8 +30.1
00 25.08 ЮЗ 10 10 км 10/3 600 м
[Cu hum Ac As Cs]
+28.8 +26.3 86 +44 +44 опасность
перегрева
1007.5 1005.8 +27.8
03 25.08 Ю 9 10 км 9/3 600 м
[Cu med, cong Ac lent Cs]
+29.1 +26.7 87 +45 +46 опасность
перегрева
1008.8 1007.1
06 25.08 ЮЗ 9 10 км 9/3 600 м
[Cu med, cong Ac lent Cs]
+29.1 +26.7 87 +45 +46 опасность
перегрева
1007.0 1005.3
09 25.08 Ю 12 12 км 10/4 600 м
[Cu med, cong Ac As Cs]
+29.8 +26.7 83 +46 +46 опасность
перегрева
1004.6 1003.0
12 25.08 З 11 12 км зарница 10/3 300 м
[Cb cap Ac As Cs]
+30.1 +26.9 83 +47 +47 опасность
перегрева
1005.7 1004.0 +30.3

 

Местоположение метеостанции Бангкок Пилот (Таиланд): широта 13.38 долгота 100.60 высота над уровнем моря 15 м.

В архиве по умолчанию представлена погода в Бангкок Пилот за последнюю неделю. Архивные данные за месяц целиком и за предыдущие месяцы, начиная с января 2011 года, Вы можете получить, выбрав интересующий диапазон дат из раскрывающегося списка и нажав кнопку "Ввод!".


*Определитесь, кто Вы:
робот инопланетянин человек

Внимание! Время в таблицах - всемирное. Для получения местного времени необходимо прибавить поправку, которая равна 7 ч.

Смотрите также архив погоды в соседних городах и на ближайших метеорологических станциях:

Погода в Самутрудкан Агромете (Таиланд) (22 км)
Погода на Ко Сичан (Таиланд) (32 км)
Погода в Бангна Агромете (Таиланд) (32 км)
Погода в Бангкоке 2 (Таиланд) (36 км)
Погода в Аэропорту Суварнабхуми (Таиланд) (38 км)
Погода в Бангкоке (Таиланд) (39 км)
Погода в Чонбури (Таиланд) (41 км)
Погода в Ратбури (Таиланд) (41 км)
Погода в Паттайе (Таиланд) (58 км)
Погода в Дон Муанг (Таиланд) (60 км)

Пояснения к столбцам:

Ветер - указаны скорость ветра в м/с - средняя за 10 мин, порывы в срок и между сроками (в фигурных скобках) и направление, откуда дует ветер: С - северный, СВ - северо-восточный, В - восточный, ЮВ - юго-восточный, Ю - южный, ЮЗ - юго-западный, З - западный, СЗ - северо-западный.
Видимость - горизонтальная дальность видимости в метрах или километрах. При видимости от 1 до 10 км при отсутствии осадков обычно наблюдается дымка, при ухудшении видимости до 1 км и менее - туман. В сухую погоду видимость может ухудшаться дымом, пылью или мглою.
Явления - указаны атмосферные явления, наблюдавшиеся в срок или в последний час перед сроком; фигурными скобками обозначены явления, наблюдавшиеся между сроками (за 1-3 часа до срока); квадратными скобками обозначены град или гололедные отложения с указанием их диаметра в мм.
Облачность - указаны через наклонную черту общая и нижняя облачность в баллах и высота нижней границы облаков в метрах; квадратными скобками обозначены формы облаков: Ci - перистые, Cs - перисто-слоистые, Cc - перисто-кучевые, Ac - высококучевые, As - высокослоистые, Sc - слоисто-кучевые, Ns - слоисто-дождевые, Cu - кучевые, Cb - кучево-дождевые. Подробнее классификацию облаков см. в Атласе облаков (PDF).
T - Температура воздуха - температура, измеренная на высоте 2 м над землей.
Td - Температура точки росы - температура, при понижении до которой содержащийся в воздухе водяной пар достигнет насыщения.
f - Относительная влажность воздуха - влажноcть воздуха, измеренная на высоте 2 м над землей.
Te - Эффективная температура - температура, которую ощущает одетый по сезону человек в тени. Характеристика душности погоды. При расчете учитывается влияние влажности воздуха и скорости ветра на теплоощущения человека.
Tes - Эффективная температура на солнце - температура, которую ощущает человек, с поправкой на солнечный нагрев. Характеристика знойности погоды. Зависит от высоты солнца над горизонтом, облачности и скорости ветра. Ночью, в пасмурную погоду, а также при ветре 12 м/с и более поправка равна нулю.
P - Атмосферное давление - приведенное к уровню моря атмосферное давление.
Po - Атмосферное давление - измеренное на уровне метеостанции атмосферное давление.
Tmin - Минимальная температура - минимум температуры воздуха на высоте 2 м над землей.
Tmax - Максимальная температура - максимум температуры воздуха на высоте 2 м над землей.
R - Количество осадков - Количество выпавших осадков за период времени, мм. При наведении курсора мыши на число - период времени, за который выпало указанное количество осадков.
R24 - Количество осадков - Количество выпавших осадков за 24 часа, мм.
S - Снежный покров - Высота снежного покрова, см. При наведении курсора мыши на число - состояние снежного покрова и степень покрытия местности в баллах.